Regional Weather Roundup
Issued by NWS Cleveland, OH

Home | Current Version | Previous Version | Graphics & Text | Print | Product List | Glossary On
Versions: 1 2 3 4 5 6 7 8 9 10 11 12 13 14 15 16 17 18 19 20 21 22 23 24 25 26 27 28 29 30 31 32 33 34 35 36 37 38 39 40 41 42 43 44 45 46 47 48 49 50
765
ASUS41 KCLE 230202
RWRCLE
OHIO REGIONAL WEATHER ROUNDUP
NATIONAL WEATHER SERVICE CLEVELAND, OH
1000 PM EDT THU JUN 22 2017

NOTE: "FAIR" INDICATES FEW OR NO CLOUDS BELOW 12,000 FEET WITH NO
SIGNIFICANT WEATHER AND/OR OBSTRUCTIONS TO VISIBILITY.

OHZ001>008-015>018-024>027-034-035-043-044-230300-
   NORTHWEST OHIO

CITY           SKY/WX    TMP DP  RH WIND       PRES   REMARKS
DEFIANCE       PTCLDY    77  65  66 S14       29.82S
FINDLAY        MOCLDY    80  65  59 SW16      29.85R
TOLEDO EXPRESS CLOUDY    78  68  71 SW9       29.81S
TOLEDO EXEC    CLOUDY    79  69  71 S12       29.82F
LIMA           PTCLDY    76  67  73 S9        29.87R
$$

OHZ009>014-019>023-028>033-038-089-230300-
   NORTHEAST OHIO

CITY           SKY/WX    TMP DP  RH WIND       PRES   REMARKS
CLE-HOPKINS    CLOUDY    82  68  62 S13       29.88R
CLE-LAKEFRONT  CLOUDY    82  67  60 S13G21    29.84R
CUY CO. ARPT   MOCLDY    81  68  65 S9        29.87R
LORAIN-ELYRIA  MOCLDY    79  64  60 S10       29.87R
ASHTABULA      CLOUDY    78  68  71 S9        29.88R
AKRON-CANTON   CLOUDY    78  68  71 S10       29.92S
WOOSTER        CLOUDY    77  70  79 S8        29.92R
MANSFIELD      CLOUDY    77  66  68 SW15G24   29.92R
YOUNGSTOWN     MOCLDY    77  67  71 S9        29.92R
$$

OHZ042-051>053-060>062-070>072-077>081-230300-
  SOUTHWEST OHIO

CITY           SKY/WX    TMP DP  RH WIND       PRES   REMARKS
CINC-COVINGTON LGT RAIN  70  69  97 S14       29.89S
CINC-LUNKEN    LGT RAIN  70  70 100 S20G29    29.89S FOG
HAMILTON       LGT RAIN  72  71  97 S3        29.90R
DAYTON         CLOUDY    73  67  81 S15       29.90S
WRIGHT-PAT AFB MOCLDY    74  70  86 S9        29.90R
DAYTON GENERAL RAIN      71  69  93 S9        29.91R
WILMINGTON     LGT RAIN  70  70 100 S8        29.91S
$$

OHZ036-037-039>041-045>050-054>059-063>069-073>076-082>088-230300-
  CENTRAL AND SOUTHEAST OHIO

CITY           SKY/WX    TMP DP  RH WIND       PRES   REMARKS
COLUMBUS       CLOUDY    77  68  73 S12       29.92R
OSU AIRPORT    CLOUDY    76  68  76 S9        29.91S
BOLTON FIELD   NOT AVBL
RICKENBACK AFB CLOUDY    74  67  79 S13       29.92S
NEWARK         CLOUDY    76  66  71 S12       29.93R
MARION         CLOUDY    77  65  66 S17G23    29.90R
LANCASTER      MOCLDY    75  67  76 S6        29.94R
ZANESVILLE     CLOUDY    77  68  73 SW9       29.95R
NEW PHILLY     NOT AVBL
$$




USA.gov is the U.S. government's official web portal to all federal, state and local government web resources and services.